When you browse on this site, cookies collect data to enhance your experience and personalize the content and advertising you see.
Visit our Privacy Policy to learn more. By continuing to use the site, you agree to this use of cookies and data.
  • In Hungary
  • List of Countries
  • For 7 days
  • Water Temperature
  • Weather Map
  • News
  • Weather Widgets
  • user-avatar
    Login

    Hourly Weather Hohen Neuendorf

    Today, 6 December, Friday

    Time Temperature Precipitation Wind Pressure Humidity
    00:00 -2°C° 0 mm 4 mps 756 mmHg 74%
    01:00 -2°C° 0 mm 4 mps 756 mmHg 72%
    02:00 -2°C° 0 mm 5 mps 755 mmHg 69%
    03:00 -2°C° 0 mm 5 mps 754 mmHg 66%
    04:00 -2°C° 0 mm 5 mps 754 mmHg 62%
    05:00 -2°C° 0 mm 5 mps 754 mmHg 61%
    06:00 -1°C° 0 mm 5 mps 753 mmHg 60%
    07:00 -1°C° 0 mm 5 mps 753 mmHg 59%
    08:00 0°C° 0 mm 5 mps 753 mmHg 61%
    09:00 0°C° 0 mm 5 mps 753 mmHg 62%
    10:00 +1°C° 0 mm 6 mps 753 mmHg 64%
    11:00 +1°C° 0.3 mm 5 mps 752 mmHg 67%
    12:00 +1°C° 0.3 mm 5 mps 752 mmHg 71%
    13:00 +1°C° 0.3 mm 5 mps 752 mmHg 75%
    14:00 +1°C° 0.5 mm 5 mps 751 mmHg 77%
    15:00 +2°C° 0.5 mm 5 mps 751 mmHg 80%
    16:00 +2°C° 0.5 mm 6 mps 750 mmHg 83%
    17:00 +2°C° 0.4 mm 6 mps 750 mmHg 84%
    18:00 +2°C° 0.4 mm 6 mps 750 mmHg 85%
    19:00 +2°C° 0.4 mm 6 mps 749 mmHg 87%
    20:00 +2°C° 0.5 mm 6 mps 749 mmHg 87%
    21:00 +2°C° 0.5 mm 6 mps 749 mmHg 87%
    22:00 +2°C° 0.5 mm 6 mps 748 mmHg 87%
    23:00 +3°C° 0.8 mm 6 mps 748 mmHg 88%

    Tomorrow, 7 December, Saturday

    Time Temperature Precipitation Wind Pressure Humidity
    00:00 +3°C° 0.8 mm 6 mps 747 mmHg 89%
    01:00 +3°C° 0.8 mm 6 mps 747 mmHg 89%
    02:00 +4°C° 0.9 mm 6 mps 746 mmHg 89%
    03:00 +4°C° 0.9 mm 6 mps 746 mmHg 89%
    04:00 +5°C° 0.9 mm 6 mps 745 mmHg 89%
    05:00 +5°C° 0 mm 6 mps 745 mmHg 87%
    06:00 +5°C° 0 mm 6 mps 745 mmHg 85%
    07:00 +5°C° 0 mm 6 mps 746 mmHg 83%
    08:00 +7°C° 0.8 mm 6 mps 746 mmHg 84%
    09:00 +7°C° 0.8 mm 6 mps 747 mmHg 86%
    10:00 +7°C° 0.8 mm 6 mps 747 mmHg 88%
    11:00 +7°C° 0 mm 6 mps 748 mmHg 86%
    12:00 +7°C° 0 mm 6 mps 748 mmHg 83%
    13:00 +6°C° 0 mm 7 mps 749 mmHg 81%
    14:00 +6°C° 0 mm 7 mps 749 mmHg 82%
    15:00 +6°C° 0 mm 7 mps 749 mmHg 83%
    16:00 +6°C° 0 mm 7 mps 749 mmHg 83%
    17:00 +7°C° 0.5 mm 6 mps 749 mmHg 84%
    18:00 +7°C° 0.5 mm 5 mps 750 mmHg 84%
    19:00 +7°C° 0.5 mm 5 mps 750 mmHg 84%
    20:00 +7°C° 0.3 mm 5 mps 751 mmHg 86%
    21:00 +6°C° 0.3 mm 5 mps 751 mmHg 87%
    22:00 +6°C° 0.3 mm 5 mps 751 mmHg 88%
    23:00 +6°C° 0.1 mm 5 mps 751 mmHg 87%

    Day after tomorrow, 8 December, Sunday

    Time Temperature Precipitation Wind Pressure Humidity
    00:00 +6°C° 0.1 mm 5 mps 751 mmHg 86%
    01:00 +6°C° 0.1 mm 5 mps 751 mmHg 85%
    02:00 +5°C° 0 mm 6 mps 750 mmHg 84%
    03:00 +5°C° 0 mm 6 mps 750 mmHg 84%
    04:00 +5°C° 0 mm 6 mps 750 mmHg 84%
    05:00 +6°C° 0 mm 5 mps 749 mmHg 83%
    06:00 +6°C° 0 mm 5 mps 749 mmHg 83%
    07:00 +6°C° 0 mm 5 mps 749 mmHg 82%
    08:00 +5°C° 0 mm 6 mps 748 mmHg 80%
    09:00 +5°C° 0 mm 6 mps 747 mmHg 78%
    10:00 +5°C° 0 mm 7 mps 747 mmHg 76%
    11:00 +5°C° 0.4 mm 7 mps 746 mmHg 78%
    12:00 +5°C° 0.4 mm 7 mps 745 mmHg 81%
    13:00 +5°C° 0.4 mm 8 mps 744 mmHg 84%
    14:00 +6°C° 0.3 mm 7 mps 744 mmHg 83%
    15:00 +7°C° 0.3 mm 6 mps 743 mmHg 82%
    16:00 +8°C° 0.3 mm 6 mps 743 mmHg 81%
    17:00 +8°C° 0.3 mm 6 mps 743 mmHg 82%
    18:00 +8°C° 0.3 mm 6 mps 743 mmHg 83%
    19:00 +8°C° 0.3 mm 6 mps 743 mmHg 84%
    20:00 +8°C° 0 mm 6 mps 743 mmHg 82%
    21:00 +7°C° 0 mm 6 mps 743 mmHg 81%
    22:00 +6°C° 0 mm 5 mps 743 mmHg 79%
    23:00 +6°C° 0.1 mm 5 mps 742 mmHg 80%

    9 December, Monday

    Time Temperature Precipitation Wind Pressure Humidity
    00:00 +5°C° 0.1 mm 5 mps 742 mmHg 81%
    01:00 +5°C° 0.1 mm 5 mps 742 mmHg 82%
    02:00 +4°C° 0.2 mm 6 mps 741 mmHg 82%
    03:00 +4°C° 0.2 mm 6 mps 741 mmHg 83%
    04:00 +4°C° 0.2 mm 6 mps 741 mmHg 83%
    05:00 +5°C° 0 mm 5 mps 741 mmHg 82%
    06:00 +5°C° 0 mm 5 mps 740 mmHg 81%
    07:00 +3°C° 0 mm 5 mps 740 mmHg 80%
    08:00 +5°C° 0 mm 5 mps 740 mmHg 79%
    09:00 +4°C° 0 mm 6 mps 740 mmHg 78%
    10:00 +4°C° 0 mm 6 mps 739 mmHg 77%
    11:00 +5°C° 0 mm 6 mps 739 mmHg 75%
    12:00 +5°C° 0 mm 6 mps 738 mmHg 73%
    13:00 +5°C° 0 mm 6 mps 738 mmHg 72%
    14:00 +6°C° 0.3 mm 5 mps 737 mmHg 74%
    15:00 +6°C° 0.3 mm 5 mps 737 mmHg 76%
    16:00 +5°C° 0.3 mm 4 mps 737 mmHg 78%
    17:00 +5°C° 0.5 mm 5 mps 737 mmHg 82%
    18:00 +5°C° 0.5 mm 5 mps 738 mmHg 86%
    19:00 +3°C° 0.5 mm 5 mps 738 mmHg 89%
    20:00 +3°C° 0.2 mm 5 mps 739 mmHg 87%
    21:00 +3°C° 0.2 mm 5 mps 739 mmHg 86%
    22:00 +3°C° 0.2 mm 6 mps 740 mmHg 84%
    23:00 +3°C° 0.1 mm 5 mps 740 mmHg 86%

    10 December, Tuesday

    Time Temperature Precipitation Wind Pressure Humidity
    00:00 +3°C° 0.1 mm 5 mps 741 mmHg 88%
    01:00 +4°C° 0.1 mm 4 mps 742 mmHg 91%
    02:00 +3°C° 0 mm 5 mps 743 mmHg 90%
    03:00 +3°C° 0 mm 5 mps 744 mmHg 89%
    04:00 +3°C° 0 mm 5 mps 745 mmHg 88%
    05:00 +3°C° 0 mm 5 mps 746 mmHg 86%
    06:00 +3°C° 0 mm 6 mps 747 mmHg 83%
    07:00 +3°C° 0 mm 6 mps 748 mmHg 80%
    08:00 +2°C° 0 mm 6 mps 750 mmHg 80%
    09:00 0°C° 0 mm 7 mps 752 mmHg 79%
    10:00 0°C° 0 mm 7 mps 753 mmHg 79%
    11:00 0°C° 0 mm 7 mps 754 mmHg 69%
    12:00 +1°C° 0 mm 6 mps 755 mmHg 60%
    13:00 +1°C° 0 mm 5 mps 756 mmHg 51%
    14:00 +1°C° 0 mm 4 mps 757 mmHg 55%
    15:00 0°C° 0 mm 4 mps 757 mmHg 60%
    16:00 0°C° 0 mm 3 mps 758 mmHg 65%
    17:00 0°C° 0 mm 3 mps 758 mmHg 69%
    18:00 -1°C° 0 mm 2 mps 759 mmHg 73%
    19:00 -1°C° 0 mm 2 mps 759 mmHg 77%
    20:00 -1°C° 0 mm 2 mps 759 mmHg 77%
    21:00 -1°C° 0 mm 2 mps 758 mmHg 77%
    22:00 -1°C° 0 mm 3 mps 758 mmHg 77%
    23:00 -1°C° 0 mm 3 mps 757 mmHg 74%

    11 December, Wednesday

    Time Temperature Precipitation Wind Pressure Humidity
    00:00 -2°C° 0 mm 4 mps 756 mmHg 71%
    01:00 -2°C° 0 mm 5 mps 755 mmHg 69%
    02:00 -1°C° 0 mm 5 mps 754 mmHg 70%
    03:00 -2°C° 0 mm 6 mps 753 mmHg 72%
    04:00 -1°C° 0 mm 6 mps 752 mmHg 73%
    05:00 -1°C° 0.9 mm 6 mps 751 mmHg 80%
    06:00 -2°C° 0.9 mm 6 mps 750 mmHg 88%
    07:00 -2°C° 0.9 mm 7 mps 750 mmHg 95%
    08:00 -1°C° 0.6 mm 6 mps 749 mmHg 93%
    09:00 +1°C° 0.6 mm 6 mps 749 mmHg 91%
    10:00 +2°C° 0.6 mm 6 mps 749 mmHg 89%
    11:00 +2°C° 0 mm 5 mps 749 mmHg 89%
    12:00 +3°C° 0 mm 5 mps 748 mmHg 88%
    13:00 +4°C° 0 mm 4 mps 748 mmHg 88%
    14:00 +4°C° 0.1 mm 4 mps 748 mmHg 88%
    15:00 +3°C° 0.1 mm 4 mps 748 mmHg 87%
    16:00 +3°C° 0.1 mm 4 mps 748 mmHg 87%
    17:00 +3°C° 0 mm 4 mps 748 mmHg 86%
    18:00 +2°C° 0 mm 5 mps 748 mmHg 84%
    19:00 +1°C° 0 mm 5 mps 748 mmHg 83%
    20:00 +2°C° 0 mm 5 mps 748 mmHg 82%
    21:00 +2°C° 0 mm 6 mps 747 mmHg 80%
    22:00 +2°C° 0 mm 6 mps 747 mmHg 78%
    23:00 +2°C° 0 mm 6 mps 746 mmHg 78%
    Show more